FW8218 Weather Reports


Display with metric or nautical units.
time (UTC)temp
F
wind
direction
speed
MPH
gust
MPH
rain 1hr
in
rain 24hr
in
rain mn
in
humidity
%
barometer
mb
20260506013708 50 350 3.0 10.0 0.00 0.00 0.00 79 1009.5
20260506013207 50 30 3.0 12.0 0.00 0.00 0.00 79 1009.5
20260506012715 50 51 3.0 12.0 0.00 0.00 0.00 79 1009.5
20260506011719 50 41 4.0 15.0 0.00 0.00 0.00 79 1009.6
20260506011209 50 18 4.0 15.0 0.00 0.00 0.00 78 1009.5
20260506010207 50 341 4.0 13.0 0.00 0.00 0.00 78 1009.5
20260506005707 50 11 4.0 13.0 0.00 0.00 0.00 78 1009.6
20260506005211 50 18 3.0 11.0 0.00 0.00 0.00 78 1009.6
20260506004719 50 26 3.0 11.0 0.00 0.00 0.00 78 1009.7
20260506004209 50 11 3.0 8.0 0.00 0.00 0.00 78 1009.8
20260506003717 50 70 3.0 8.0 0.00 0.00 0.00 78 1009.7
20260506002717 50 0 3.0 9.0 0.00 0.00 0.00 77 1009.9
20260506002210 49 54 4.0 9.0 0.00 0.00 0.00 77 1009.9
20260506001715 49 25 3.0 9.0 0.00 0.00 0.00 77 1009.9
20260506001208 49 5 3.0 9.0 0.00 0.00 0.00 78 1010.0
20260506000710 49 53 3.0 9.0 0.00 0.00 0.00 78 1010.1
20260505235717 49 9 3.0 11.0 0.00 0.00 0.00 77 1010.1
20260505235211 49 338 3.0 11.0 0.00 0.00 0.00 77 1010.2
20260505234216 49 41 4.0 10.0 0.00 0.00 0.00 76 1010.2
20260505233718 49 0 3.0 9.0 0.00 0.00 0.00 76 1010.2
20260505233211 49 341 3.0 9.0 0.00 0.00 0.00 76 1010.3
20260505232714 49 19 4.0 9.0 0.00 0.00 0.00 76 1010.4
20260505232218 49 40 3.0 9.0 0.00 0.00 0.00 75 1010.4
20260505231711 49 32 3.0 9.0 0.00 0.00 0.00 75 1010.4
20260505231215 49 9 3.0 9.0 0.00 0.00 0.00 75 1010.4
20260505230212 49 5 4.0 11.0 0.00 0.00 0.00 75 1010.5
20260505225713 50 100 4.0 11.0 0.00 0.00 0.00 75 1010.5
20260505225205 50 325 4.0 11.0 0.00 0.00 0.00 75 1010.5
20260505224211 50 344 3.0 12.0 0.00 0.00 0.00 74 1010.4
20260505223712 50 38 3.0 12.0 0.00 0.00 0.00 74 1010.4
20260505223212 50 321 4.0 12.0 0.00 0.00 0.00 74 1010.5
20260505222707 50 0 4.0 12.0 0.00 0.00 0.00 74 1010.5
20260505221717 50 36 4.0 12.0 0.00 0.00 0.00 73 1010.6
20260505221219 50 336 4.0 10.0 0.00 0.00 0.00 73 1010.6
20260505220248 50 5 3.0 12.0 0.00 0.00 0.00 73 1010.7
20260505215712 50 355 3.0 12.0 0.00 0.00 0.00 73 1010.7
20260505214708 50 44 4.0 10.0 0.00 0.00 0.00 73 1010.8
20260505214207 50 51 3.0 10.0 0.00 0.00 0.00 73 1010.8
20260505213705 50 52 3.0 11.0 0.00 0.00 0.00 73 1010.9
20260505213215 50 43 4.0 11.0 0.00 0.00 0.00 73 1010.8
20260505212712 51 33 4.0 9.0 0.00 0.00 0.00 73 1010.8
20260505212207 51 345 3.0 9.0 0.00 0.00 0.00 73 1010.9
20260505211709 51 337 3.0 9.0 0.00 0.00 0.00 73 1010.8
20260505211213 51 0 3.0 9.0 0.00 0.00 0.00 73 1010.9
20260505210716 51 57 4.0 9.0 0.00 0.00 0.00 73 1010.9
20260505210214 51 79 3.0 9.0 0.00 0.00 0.00 73 1011.0
20260505205718 51 38 3.0 11.0 0.00 0.00 0.00 73 1011.0
20260505205216 51 29 3.0 11.0 0.00 0.00 0.00 73 1011.0
20260505204712 51 62 4.0 10.0 0.00 0.00 0.00 73 1011.0
20260505204208 51 48 3.0 12.0 0.00 0.00 0.00 73 1011.0
20260505203706 51 333 4.0 12.0 0.00 0.00 0.00 73 1010.9
20260505203210 51 31 4.0 12.0 0.00 0.00 0.00 73 1011.0
20260505202707 52 49 4.0 11.0 0.00 0.00 0.00 72 1011.0
20260505202219 52 57 5.0 11.0 0.00 0.00 0.00 72 1010.9
20260505201717 52 22 5.0 10.0 0.00 0.00 0.00 72 1010.9
20260505201214 52 66 4.0 10.0 0.00 0.00 0.00 72 1010.9
20260505200708 52 31 4.0 10.0 0.00 0.00 0.00 72 1010.9
20260505200212 52 55 4.0 11.0 0.00 0.00 0.00 72 1010.8
20260505195716 52 20 4.0 12.0 0.00 0.00 0.00 73 1010.8
20260505195216 52 38 5.0 14.0 0.00 0.00 0.00 73 1010.7
20260505194706 52 42 6.0 14.0 0.00 0.00 0.00 73 1010.7
20260505194207 53 53 6.0 12.0 0.00 0.00 0.00 73 1010.6
20260505193707 53 55 4.0 15.0 0.00 0.00 0.00 74 1010.5
20260505193205 53 0 4.0 15.0 0.00 0.00 0.00 74 1010.4
20260505192216 53 15 4.0 12.0 0.00 0.00 0.00 73 1010.3
20260505191709 53 334 4.0 14.0 0.00 0.00 0.00 73 1010.3
20260505191216 53 27 5.0 14.0 0.00 0.00 0.00 73 1010.3
20260505190708 53 28 5.0 14.0 0.00 0.00 0.00 73 1010.2
20260505190212 53 339 6.0 16.0 0.00 0.00 0.00 74 1010.2
20260505185714 54 21 5.0 16.0 0.00 0.00 0.00 74 1010.1
20260505185219 54 13 5.0 16.0 0.00 0.00 0.00 74 1010.1
20260505184714 54 70 6.0 15.0 0.00 0.00 0.00 74 1010.1
20260505183709 54 23 6.0 17.0 0.00 0.00 0.00 73 1009.9
20260505183206 54 347 7.0 17.0 0.00 0.00 0.00 73 1010.0
20260505182718 54 5 8.0 17.0 0.00 0.00 0.00 73 1010.0
20260505181715 54 327 7.0 15.0 0.00 0.00 0.00 73 1009.9
20260505181209 54 36 7.0 15.0 0.00 0.00 0.00 73 1009.9
20260505180212 55 355 8.0 17.0 0.00 0.00 0.00 73 1009.9
20260505175716 55 318 7.0 17.0 0.00 0.00 0.00 72 1010.0
20260505174710 55 333 8.0 17.0 0.00 0.00 0.00 72 1010.0
20260505174208 55 338 9.0 17.0 0.00 0.00 0.00 72 1010.0
20260505173718 55 331 8.0 16.0 0.00 0.00 0.00 71 1010.0
20260505172706 55 9 8.0 16.0 0.00 0.00 0.00 71 1010.0
20260505172211 55 32 7.0 15.0 0.00 0.00 0.00 72 1010.0
20260505171706 55 328 7.0 18.0 0.00 0.00 0.00 72 1010.1
20260505171237 55 5 8.0 18.0 0.00 0.00 0.00 73 1010.0
20260505170206 55 331 7.0 18.0 0.00 0.00 0.00 72 1010.2
20260505165711 55 348 7.0 18.0 0.00 0.00 0.00 72 1010.1
20260505165217 55 20 9.0 19.0 0.00 0.00 0.00 72 1010.2
20260505164720 55 22 8.0 19.0 0.00 0.00 0.00 72 1010.2
20260505164214 55 57 9.0 16.0 0.00 0.00 0.00 71 1010.2
20260505163717 55 15 8.0 18.0 0.00 0.00 0.00 71 1010.2
20260505163210 55 9 7.0 18.0 0.00 0.00 0.00 71 1010.2
20260505162708 55 324 7.0 18.0 0.00 0.00 0.00 71 1010.1
20260505162212 56 36 7.0 17.0 0.00 0.00 0.00 70 1010.2
20260505161705 56 17 8.0 17.0 0.00 0.00 0.00 70 1010.2
20260505161214 56 342 7.0 17.0 0.00 0.00 0.00 69 1010.2
20260505160245 56 344 9.0 17.0 0.00 0.00 0.00 70 1010.2
20260505152716 57 0 8.0 17.0 0.00 0.00 0.00 69 1010.2
20260505151236 57 355 8.0 20.0 0.00 0.00 0.00 69 1010.2
20260505150711 57 40 9.0 20.0 0.00 0.00 0.00 68 1010.3
20260505150213 57 28 9.0 20.0 0.00 0.00 0.00 68 1010.2
20260505140220 57 355 9.0 16.0 0.00 0.00 0.00 65 1010.3
20260505130218 58 344 8.0 21.0 0.00 0.00 0.00 64 1010.6
20260505124707 58 32 9.0 16.0 0.00 0.00 0.00 66 1010.6
20260505124206 58 338 9.0 17.0 0.00 0.00 0.00 67 1010.6
20260505123719 58 339 9.0 18.0 0.00 0.00 0.00 67 1010.7
20260505122708 59 5 7.0 19.0 0.00 0.00 0.00 66 1010.6
20260505122214 58 5 9.0 19.0 0.00 0.00 0.00 66 1010.7
20260505121744 58 335 8.0 18.0 0.00 0.00 0.00 65 1010.6
20260505120712 58 318 9.0 18.0 0.00 0.00 0.00 67 1010.6
20260505115715 58 345 7.0 15.0 0.00 0.00 0.00 64 1010.6
20260505115218 59 9 7.0 17.0 0.00 0.00 0.00 66 1010.7
20260505114713 58 326 7.0 17.0 0.00 0.00 0.00 66 1010.7
20260505114208 58 331 7.0 17.0 0.00 0.00 0.00 66 1010.8
20260505113713 58 307 8.0 16.0 0.00 0.00 0.00 66 1010.8
20260505113215 58 317 8.0 16.0 0.00 0.00 0.00 66 1010.9
20260505112739 58 279 7.0 16.0 0.00 0.00 0.00 65 1010.9
20260505112217 59 262 8.0 16.0 0.00 0.00 0.00 67 1010.9
20260505111710 58 348 8.0 16.0 0.00 0.00 0.00 65 1011.0
20260505111206 59 344 7.0 16.0 0.00 0.00 0.00 65 1011.0
20260505110711 58 288 6.0 16.0 0.00 0.00 0.00 67 1011.0
20260505110206 58 327 7.0 15.0 0.00 0.00 0.00 66 1011.0
20260505102211 59 5 5.0 13.0 0.00 0.00 0.00 64 1011.3
20260505101714 60 86 5.0 13.0 0.00 0.00 0.00 60 1011.3
20260505101208 60 38 6.0 13.0 0.00 0.00 0.00 56 1011.4
20260505100708 59 0 6.0 15.0 0.00 0.00 0.00 56 1011.4
20260505100215 59 58 6.0 15.0 0.00 0.00 0.00 58 1011.5
20260505095717 59 46 6.0 12.0 0.00 0.00 0.00 57 1011.5
20260505095206 59 48 5.0 12.0 0.00 0.00 0.00 59 1011.5
20260505094710 59 355 5.0 12.0 0.00 0.00 0.00 58 1011.5
20260505094218 58 46 6.0 12.0 0.00 0.00 0.00 58 1011.5
20260505093717 58 44 5.0 12.0 0.00 0.00 0.00 58 1011.5
20260505093218 58 56 5.0 14.0 0.00 0.00 0.00 60 1011.5
20260505092712 58 355 5.0 14.0 0.00 0.00 0.00 61 1011.5
20260505092216 58 42 6.0 14.0 0.00 0.00 0.00 62 1011.6
20260505091719 58 50 7.0 13.0 0.00 0.00 0.00 61 1011.7
20260505091220 58 86 6.0 12.0 0.00 0.00 0.00 61 1011.6
20260505090713 58 0 6.0 12.0 0.00 0.00 0.00 62 1011.5
20260505085707 58 41 5.0 13.0 0.00 0.00 0.00 62 1011.7
20260505084710 57 48 6.0 14.0 0.00 0.00 0.00 62 1011.6
20260505084216 57 43 6.0 14.0 0.00 0.00 0.00 61 1011.7
20260505083716 57 42 6.0 14.0 0.00 0.00 0.00 62 1011.6
20260505082713 56 87 6.0 13.0 0.00 0.00 0.00 64 1011.6
20260505082210 56 42 7.0 14.0 0.00 0.00 0.00 65 1011.6
20260505081711 56 46 6.0 14.0 0.00 0.00 0.00 66 1011.6
20260505081212 55 28 6.0 16.0 0.00 0.00 0.00 67 1011.6
20260505080712 55 77 7.0 16.0 0.00 0.00 0.00 69 1011.5
20260505080211 55 78 7.0 16.0 0.00 0.00 0.00 68 1011.5
20260505075720 55 74 7.0 14.0 0.00 0.00 0.00 68 1011.5
20260505075207 55 105 8.0 14.0 0.00 0.00 0.00 70 1011.5
20260505074707 55 58 7.0 14.0 0.00 0.00 0.00 69 1011.6
20260505074214 55 66 7.0 14.0 0.00 0.00 0.00 70 1011.7
20260505073212 54 71 6.0 15.0 0.00 0.00 0.00 72 1011.7
20260505072713 55 327 5.0 15.0 0.00 0.00 0.00 71 1011.7
20260505072212 54 351 4.0 15.0 0.00 0.00 0.00 73 1011.8
20260505071720 54 59 5.0 15.0 0.00 0.00 0.00 73 1011.8
20260505071218 54 47 4.0 14.0 0.00 0.00 0.00 74 1011.8
20260505070705 54 337 5.0 14.0 0.00 0.00 0.00 75 1012.0
20260505070211 54 30 6.0 14.0 0.00 0.00 0.00 75 1012.0
20260505065708 53 43 5.0 12.0 0.00 0.00 0.00 76 1012.0
20260505065209 53 26 4.0 10.0 0.00 0.00 0.00 78 1012.0
20260505064714 53 65 4.0 10.0 0.00 0.00 0.00 79 1012.1
20260505064214 52 50 4.0 10.0 0.00 0.00 0.00 81 1012.1
20260505063713 51 70 3.0 12.0 0.00 0.00 0.00 81 1012.1
20260505063207 51 57 4.0 12.0 0.00 0.00 0.00 82 1012.2
20260505062707 51 29 4.0 12.0 0.00 0.00 0.00 82 1012.3
20260505062218 51 95 4.0 10.0 0.00 0.00 0.00 83 1012.3
20260505061708 51 9 5.0 12.0 0.00 0.00 0.00 83 1012.2
20260505061221 51 69 4.0 12.0 0.00 0.00 0.00 83 1012.2
20260505055712 51 79 3.0 10.0 0.00 0.00 0.00 84 1012.3
20260505055229 51 52 3.0 11.0 0.00 0.00 0.00 84 1012.3
20260505054734 51 315 5.0 12.0 0.00 0.00 0.00 84 1012.3
20260505054209 51 28 5.0 12.0 0.00 0.00 0.00 84 1012.3
20260505053737 51 63 4.0 12.0 0.00 0.00 0.00 84 1012.3
20260505053214 51 355 4.0 12.0 0.00 0.00 0.00 84 1012.3
20260505052707 51 46 4.0 12.0 0.00 0.00 0.00 84 1012.2
20260505052210 51 5 3.0 10.0 0.00 0.00 0.00 84 1012.1
20260505051714 51 327 3.0 10.0 0.00 0.00 0.00 84 1012.2
20260505051216 51 349 3.0 9.0 0.00 0.00 0.00 84 1012.0
20260505050209 51 331 3.0 9.0 0.00 0.00 0.00 85 1012.1
20260505041711 50 355 4.0 11.0 0.00 0.00 0.00 85 1012.0
20260505041215 51 44 4.0 11.0 0.00 0.00 0.00 85 1012.0
20260505040213 51 103 5.0 13.0 0.00 0.00 0.00 85 1012.0
20260505035711 51 44 5.0 13.0 0.00 0.00 0.00 85 1012.0
20260505035214 51 99 4.0 9.0 0.00 0.00 0.00 85 1011.9
20260505034715 51 26 5.0 11.0 0.00 0.00 0.00 85 1012.0
20260505034210 51 61 4.0 11.0 0.00 0.00 0.00 84 1012.1
20260505033717 51 73 4.0 11.0 0.00 0.00 0.00 84 1012.0
20260505033215 51 49 4.0 11.0 0.00 0.00 0.00 84 1012.0
20260505032717 51 39 4.0 11.0 0.00 0.00 0.00 84 1011.9
20260505032205 51 65 4.0 11.0 0.00 0.00 0.00 84 1012.1
20260505031719 51 44 5.0 11.0 0.00 0.00 0.00 84 1012.0
20260505031212 51 25 5.0 11.0 0.00 0.00 0.00 84 1012.1
20260505030708 51 82 5.0 10.0 0.00 0.00 0.00 84 1012.2
20260505030218 51 52 6.0 10.0 0.00 0.00 0.00 84 1012.1
20260505025716 51 44 5.0 10.0 0.00 0.00 0.00 84 1012.1
20260505025208 51 51 4.0 10.0 0.00 0.00 0.00 84 1012.2
20260505024706 51 35 4.0 9.0 0.00 0.00 0.00 84 1012.2
20260505024216 51 349 3.0 6.0 0.00 0.00 0.00 84 1012.2
20260505023719 51 36 2.0 9.0 0.00 0.00 0.00 84 1012.2
20260505023207 51 324 2.0 9.0 0.00 0.00 0.00 84 1012.2
20260505022728 51 5 2.0 9.0 0.00 0.00 0.00 84 1012.1
20260505022219 51 5 3.0 8.0 0.00 0.00 0.00 84 1012.2
20260505021717 52 342 4.0 8.0 0.00 0.00 0.00 84 1012.2
20260505020718 52 34 3.0 11.0 0.00 0.00 0.00 83 1012.4
20260505020207 52 11 4.0 11.0 0.00 0.00 0.00 83 1012.4
20260505015711 52 28 3.0 9.0 0.00 0.00 0.00 83 1012.5
20260505015206 52 38 3.0 8.0 0.00 0.00 0.00 83 1012.5
20260505014708 52 32 2.0 8.0 0.00 0.00 0.00 83 1012.5